United States

Ashburn, VA Weather Archive

Below you will find the last 24 hours of weather readings for Ashburn VA

Ashburn VA Today's Weather Data

Observed at: Ashburn, VA

Hour Observerd Temp Pressure Visibility Humidity Dew Point Wind
04:00 Overcast 45°F (7.2°C) 102.51 kPa 10 miles 54% 29.4°F (-1.5°C) 1 mph E 91°4 mph
03:00 Overcast 44°F (6.7°C) 102.47 kPa 10 miles 54% 28.4°F (-2°C) 3.5 mph WNW 302°
02:00 Overcast 45°F (7.2°C) 102.44 kPa 10 miles 56% 30.3°F (-1°C) 10.4 mph NE 44°
01:00 Light Rain 46°F (7.8°C) 102.4 kPa 10 miles 53% 29.8°F (-1.2°C) 6.9 mph WNW 301°
00:00 Mostly Cloudy 44°F (6.7°C) 102.37 kPa 10 miles 56% 29.3°F (-1.5°C) 8.1 mph WNW 290°
23:00 Mostly Cloudy 45°F (7.2°C) 102.37 kPa 10 miles 58% 31.1°F (-0.5°C) 8.1 mph WNW 288°
22:00 Fair 47°F (8.3°C) 102.27 kPa 10 miles 48% 28.3°F (-2°C) 4.6 mph SSE 149°
21:00 Fair 47°F (8.3°C) 102.17 kPa 10 miles 50% 29.3°F (-1.5°C) 9.2 mph SE 125°
20:00 Fair 49°F (9.4°C) 102.13 kPa 10 miles 43% 27.5°F (-2.5°C) 8.1 mph NW 304°
19:00 Fair 50°F (10°C) 102.13 kPa 10 miles 43% 28.4°F (-2°C) 8.1 mph NNE 24°
18:00 Fair 53°F (11.7°C) 102.03 kPa 10 miles 40% 29.3°F (-1.5°C) 1 mph N 6°4 mph
17:00 Fair 54°F (12.2°C) 101.93 kPa 10 miles 40% 30.2°F (-1°C) 9.2 mph NW 311°
16:00 Fair 52°F (11.1°C) 101.79 kPa 10 miles 58% 37.7°F (3.2°C) 1 mph E 101°3 mph
15:00 Fair 50°F (10°C) 101.79 kPa 10 miles 66% 39.1°F (3.9°C) 1 mph WNW 300°
14:00 Fair 49°F (9.4°C) 101.76 kPa 10 miles 73% 40.7°F (4.9°C) 12.7 mph ENE 75°
13:00 Fair 49°F (9.4°C) 101.79 kPa 10 miles 73% 40.7°F (4.9°C) 4.6 mph ENE 75°
12:00 Fair 42°F (5.6°C) 101.79 kPa 10 miles 87% 38.4°F (3.6°C) 4.6 mph ESE 104°
11:00 Overcast 38°F (3.3°C) 101.86 kPa 0.5 miles 92% 35.9°F (2.2°C) 1 mph E 96°2 mph
10:00 Overcast 35°F (1.7°C) 101.79 kPa 0.25 miles 97% 34.2°F (1.2°C) 2 mph ESE 117°
09:00 Overcast 32°F (0°C) 101.76 kPa 0.15 miles 98% 31.5°F (-0.3°C) 2 mph ESE 117°
08:00 Overcast 31°F (-0.6°C) 101.66 kPa 0.15 miles 97% 30.3°F (-1°C) 4.6 mph ESE 117°
07:00 Mostly Cloudy 31°F (-0.6°C) 101.63 kPa 2 miles 97% 30.3°F (-1°C) 4.6 mph ESE 113°
06:00 Mostly Cloudy 31°F (-0.6°C) 101.63 kPa 2 miles 97% 30.3°F (-1°C) 1 mph ESE 113°
05:00 Overcast 32°F (0°C) 101.59 kPa 0.25 miles 97% 31.2°F (-0.4°C) 2 mph ESE 113°